Notices

What's New in latest Release from April 7th, 2021:

- Updated Glossary, including Speed of Maximum Gust, and Total Hourly Precipitation

- Updated national and regional climate services offices contacts and prices information

- Addition of station inventory lists for 1981-2010, 1971-2000, and 1961-1990 Normals.

If you haven't already, please take our survey and provide feedback about our website: https://eccc.sondage-survey.ca/f/LanguageSelection.aspx?s=442ca660-fcf1-47c0-95a9-59707d6fd709

Hourly Data Report for November 05, 2006

TORONTO CITY
ONTARIO

43°40'00.000" N
79°24'00.000" W
112.50 m
6158355
71508
XTO

Download Data

Hourly Data (November 2006)
Hourly Data Report for November 5, 2006
TIME
LST
Temp Definition
°C
Dew Point Definition
°C
Rel Hum Definition
%
Precip. Amount Definition
mm

Wind Dir Definition
10's deg

Wind Spd Definition
km/h
Visibility Definition
km
Stn Press Definition
kPa
Hmdx Definition


Wind Chill Definition


Weather Definition


00:00 4.7 0.2 73   LegendMM LegendMM   101.72     LegendNANA
01:00 4.8 -0.1 71   LegendMM LegendMM   101.69     LegendNANA
02:00 5.2 0.9 74   LegendMM LegendMM   101.68     LegendNANA
03:00 5.6 1.6 75   LegendMM LegendMM   101.67     LegendNANA
04:00 5.6 1.5 75   LegendMM LegendMM   101.65     LegendNANA
05:00 5.9 1.6 74   LegendMM LegendMM   101.64     LegendNANA
06:00 6.2 1.3 71   LegendMM LegendMM   101.60     LegendNANA
07:00 6.2 2.0 74   LegendMM LegendMM   101.58     LegendNANA
08:00 6.3 2.2 75   LegendMM LegendMM   101.59     LegendNANA
09:00 6.4 3.0 79   LegendMM LegendMM   101.62     LegendNANA
10:00 6.4 2.5 76   LegendMM LegendMM   101.60     LegendNANA
11:00 7.3 1.9 69   LegendMM LegendMM   101.55     LegendNANA
12:00 8.3 2.9 69   LegendMM LegendMM   101.48     LegendNANA
13:00 8.7 3.2 68   LegendMM LegendMM   101.39     LegendNANA
14:00 9.2 2.2 62   LegendMM LegendMM   101.32     LegendNANA
15:00 9.8 1.5 56   LegendMM LegendMM   101.28     LegendNANA
16:00 8.7 2.0 63   LegendMM LegendMM   101.28     LegendNANA
17:00 8.7 1.2 59   LegendMM LegendMM   101.25     LegendNANA
18:00 8.3 1.2 61   LegendMM LegendMM   101.27     LegendNANA
19:00 7.9 1.5 64   LegendMM LegendMM   101.26     LegendNANA
20:00 7.4 1.3 65   LegendMM LegendMM   101.29     LegendNANA
21:00 7.6 1.6 66   LegendMM LegendMM   101.27     LegendNANA
22:00 8.4 0.6 58   LegendMM LegendMM   101.30     LegendNANA
23:00 7.5 0.8 62   LegendMM LegendMM   101.28     LegendNANA

Notes on Data Quality.

Legend

  • E = Estimated
  • M = Missing
  • NA = Not Available*
  • [empty] = Indicates an unobserved value
Date modified: